slobodnadalmacija.hr alexa rank chart, slobodnadalmacija.hr alexa rank daily changes

slobodnadalmacija.hr alexa rank chart, slobodnadalmacija.hr alexa rank daily changes

slobodnadalmacija.hr
Actual rank:
13 447

RANK HISTORY

Date Rank Diff
2017/03/29 13 447 -7
2017/03/28 13 454 +63
2017/03/27 13 391 +94
2017/03/26 13 297 +191
2017/03/25 13 106 +87
2017/03/24 13 019 +19
2017/03/23 13 000 +122
2017/03/22 12 878 +41
2017/03/21 12 837 +47
2017/03/20 12 790 +32
2017/03/19 12 758 +13
2017/03/18 12 745 +63
2017/03/17 12 682 -7
2017/03/16 12 689 +38
2017/03/15 12 651 -35
2017/03/14 12 686 +60
2017/03/13 12 626 +53
2017/03/12 12 573 +9
2017/03/11 12 564 +2
2017/03/10 12 562 +8
2017/03/09 12 554 -56
2017/03/08 12 610 -182
2017/03/07 12 792 +147
2017/03/06 12 645 +21
2017/03/01 12 624 -210
2017/02/28 12 834 -127
2017/02/27 12 961 -91
2017/02/26 13 052 -84
2017/02/25 13 136 +29
2017/02/24 13 107 +43
2017/02/23 13 064 -47
2017/02/22 13 111 +42
2017/02/21 13 069 -1
2017/02/20 13 070 +40
2017/02/19 13 030 +66
2017/02/18 12 964 +132
2017/02/17 12 832 +122
2017/02/16 12 710 +44
2017/02/15 12 666 +134
2017/02/14 12 532 +88
2017/02/13 12 444 -10
2017/02/12 12 454 -4
2017/02/11 12 458 +28
2017/02/10 12 430 -29
2017/02/09 12 459 +75
2017/02/08 12 384 +47
2017/02/07 12 337 +22
2017/02/06 12 315 -30
2017/02/05 12 345 +99
2017/02/04 12 246 -37
2017/02/03 12 283 -132
2017/02/02 12 415 -12
2017/02/01 12 427 +61
2017/01/31 12 366 +2
2017/01/30 12 364 +55
2017/01/29 12 309 +36
2017/01/28 12 273

WIDGET FOR YOUR SITE

DOMAINS WITH THE NEAREST RANK

Domain Rank
cyberport.de 13 442
youxidudu.com 13 443
apktops.ir 13 444
preparevideosafesystem4unow.space 13 445
evidea.com 13 446
slobodnadalmacija.hr 13 447
6abc.com 13 448
internazionale.it 13 449
nogizaka46.com 13 450
news-choice.net 13 451
ocks.org 13 452

DOMAINS WITH THE NEAREST RANK BY TLD .hr

Domain Rank
vecernji.hr 6 633
net.hr 7 609
tportal.hr 9 655
rtl.hr 11 415
skole.hr 12 969
slobodnadalmacija.hr 13 447
forum.hr 13 775
telegram.hr 21 641
unizg.hr 21 766